ORBCOMM FM 16 DEB, 44023

Orbit data source: Space-Track

ORBCOMM FM 16 DEB, 44023 is space debris in LEO originally from a launch on Sun, 02 Aug 1998 UTC launched from the Pegasus Launch, Eastern Range Air Space (ERAS). Debris objects in space refer to the collection of defunct objects orbiting the Earth. Examples of debris include non-operational satellites, rocket bodies, and fragments generated from explosions, collisions, or faulty payload assembly.

Loading next visibility...
Identifier
44023, 1998-046S
Orbit
LEO
Country
Flag of USUS / ORB
Related business
Manufacturer
OSC-Germantown
Mission
Spacecraft
Bus & Motor
MICROSTAR, Unknown motor
Mass
Unknown
Launch date (UTC)
1998-08-02 (28 years ago)
Launch vehicle
Unknown
Launch site
Pegasus Launch, Eastern Range Air Space (ERAS)
Object type
Payload
Rocket body
Debris
Shape & HBR
Unknown shape, 0.1 m
Radar Cross Section
Medium (>0.1 m² and <1 m²)

Expand to show TLE details & history
Last TLE update: 3 days ago

TLE from 3 days ago
0 ORBCOMM FM 16 DEB
1 44023U 98046S   26170.72698027  .00000306  00000-0  15563-3 0  9999
2 44023  45.0048 292.2165 0007101 126.4431 233.7071 14.35016433389837
Epoch: 2026-06-19T17:26Z
TLE epoch observation values (Epoch: 2026-06-19T17:26:51.095Z)
Latitude
-0.00005°
Longitude
122.55175°
Altitude
778.02 km
Speed
7.465 km/s
True Right ascension
19h 28m 51s
True Declination
0° 00' 00"
Sunlit
Object was in full shadow at epoch
Visualization orbit readout
Latitude
Unknown
Longitude
Unknown
Altitude
Unknown
Speed
Unknown
Apparent Right ascension
Unknown
Apparent Declination
Unknown
Sunlit
N/A
Visualization observer readout
Local Sidereal Time
21:41:54
Azimuth
Unknown
Elevation
Unknown
Doppler factor
Unknown
Orbital elements
Apogee altitude
781.635 km
Perigee altitude
771.474 km
Semi-major axis
7,154.692 km
Eccentricity
0.00071
Inclination
45.0048°
RAAN
292.2165°
Arg. of periapsis
126.4431°
True anomaly
233.64155°
Mean anomaly
233.7071°
Eccentric anomaly
233.67432°
Mean motion
3.58638 °/min
Orbital period
100.38 mins
BSTAR
0.00015563
Loading maneuver chart data...
Computing Atmospheric mass density...

Documentation

Showing up to 5 results
|